RH
11 13 13 14 15 14 11 21 75 100 83 100 100 98 100 99 100 83 69 65 26 22 31 49 100 100 100 100 100 82 82 74 40 52 58 55 56 59 66 67 81 74 71
12 13 14 14 16 16 13 12 80 94 98 86 93 100 100 100 100 100 62 80 40 21 27 48 100 100 100 100 100 93 84 78 61 58 64 68 71 64 69 73 75 88 100
13 13 15 15 15 17 15 13 46 100 100 88 86 100 100 100 100 72 53 75 59 23 22 58 97 100 100 100 100 100 88 82 82 70 83 76 85 78 80 82 76 86 98
13 13 14 17 17 18 17 15 32 100 100 100 100 100 100 100 100 100 81 66 66 24 23 35 77 100 100 100 100 100 100 92 98 80 90 89 90 95 99 97 98 100 100
12 12 15 16 19 19 20 16 22 97 100 100 96 100 100 100 100 100 100 80 74 26 29 27 74 100 100 100 100 100 100 100 100 89 81 100 100 100 95 99 100 100 100
11 12 14 16 19 20 22 19 16 89 100 100 97 100 100 100 100 100 100 92 73 30 35 32 41 100 97 100 100 100 100 100 100 95 81 90 100 100 100 100 100 100 100
10 12 14 15 18 21 23 23 18 16 100 100 100 100 100 100 100 100 100 100 91 33 39 34 32 78 100 100 100 100 100 100 100 100 93 88 94 100 100 100 100 100 100
8 11 14 14 17 21 23 26 21 20 98 100 97 100 100 100 100 100 100 100 100 43 40 50 45 63 100 100 91 89 100 100 100 100 100 94 92 100 100 100 100 100 100
6 10 13 15 17 20 23 24 23 22 90 100 93 100 100 100 100 100 100 100 100 88 40 49 84 81 84 100 100 87 99 98 99 100 100 100 94 96 100 100 100 100 100
6 9 13 15 17 20 23 23 24 22 75 100 100 100 100 100 100 100 100 100 100 100 80 83 100 100 100 99 100 100 89 100 100 100 100 100 100 100 100 100 100 100 100
6 8 12 16 17 20 23 24 23 20 22 100 100 100 100 100 100 100 100 100 100 100 100 90 100 100 100 100 100 100 100 75 76 87 100 100 100 100 100 100 100 100 100
7 8 10 12 17 21 24 24 24 24 24 100 100 100 100 100 100 100 100 100 100 100 100 81 100 100 100 100 100 100 100 100 100 99 98 100 99 100 100 100 100 100 100
7 7 10 12 16 20 25 25 27 24 22 50 100 100 100 61 87 100 100 100 100 100 100 99 78 100 100 100 100 100 100 100 100 100 100 100 100 100 100 100 100 100 100
7 7 10 12 16 21 24 25 26 29 32 24 100 100 100 100 100 100 100 100 100 100 100 100 90 92 100 100 100 100 100 100 100 100 100 100 100 100 100 100 100 100 100
7 7 10 12 17 20 23 27 30 30 29 24 81 100 100 100 100 100 100 100 100 100 100 100 100 78 99 100 100 100 100 100 100 100 100 100 100 100 100 100 100 100 100
7 7 10 13 16 21 23 27 30 31 29 25 38 84 100 100 100 100 100 100 100 100 100 100 100 100 73 100 100 100 100 100 100 100 100 100 100 100 100 100 100 100 100
7 8 9 12 15 20 22 27 29 33 31 25 27 77 100 100 100 100 100 100 100 100 100 100 100 95 66 69 100 100 100 100 100 100 100 100 99 100 98 100 100 100 100
6 8 9 11 14 18 23 26 30 32 32 24 24 71 100 100 100 100 100 86 100 100 100 100 100 100 100 96 100 100 100 100 100 100 100 100 100 100 100 100 100 100 100
7 6 9 11 14 16 22 25 29 33 26 26 25 33 89 100 100 89 70 69 82 77 100 100 100 100 98 93 100 98 100 100 100 100 100 100 100 100 100 100 100 100 100
6 6 7 10 14 17 20 25 27 32 26 28 26 26 33 100 100 94 66 61 78 93 100 100 100 100 92 90 78 99 100 97 100 100 100 100 100 100 100 100 100 100 100
6 6 6 8 11 17 19 23 25 26 29 27 26 31 37 72 100 100 70 83 100 100 100 100 100 82 90 100 89 88 99 100 99 100 100 100 100 100 100 100 100 100 100
4 6 6 6 9 13 18 21 23 27 25 28 29 28 28 80 83 100 93 71 100 96 100 100 98 86 82 100 83 84 92 100 100 99 100 100 100 100 100 100 100 100 100
5 4 6 6 7 10 13 18 21 24 24 25 29 30 24 30 53 75 100 100 100 99 95 100 100 100 98 100 98 74 88 99 100 100 100 100 100 100 100 100 100 100 100
6 5 4 6 6 7 11 13 18 24 25 24 27 32 28 32 37 27 62 100 100 100 94 88 95 100 100 100 100 87 88 82 100 96 100 100 100 100 100 97 100 99 88
6 6 5 4 6 6 7 11 14 19 23 24 24 28 29 31 47 36 41 41 100 100 100 100 98 100 100 100 100 91 100 76 94 100 100 100 100 100 100 100 100 90 76
7 6 5 5 4 6 6 7 11 16 19 22 24 26 25 28 32 34 38 45 74 100 100 100 100 100 100 100 100 100 98 91 97 93 79 86 100 100 100 100 100 100 97
Wind_Speed
112 105 99 93 86 78 72 71 51 51 60 64 60 57 61 62 61 57 53 54 57 56 54 56 59 62 61 56 56 53 52 48 44 40 37 34 32 30 28 27 27 26 24
116 111 105 97 92 84 76 73 69 75 68 59 61 60 64 65 65 66 57 54 56 58 57 58 63 64 63 57 57 57 55 52 47 44 40 37 35 32 28 28 29 27 24
122 116 110 103 96 91 81 73 70 71 71 55 63 63 67 68 63 59 54 55 57 59 59 61 66 66 65 62 57 60 58 55 49 47 44 42 39 35 33 33 32 29 25
125 118 116 108 101 96 88 80 76 80 74 58 63 62 66 63 61 66 59 61 58 61 60 62 65 67 65 67 63 59 61 58 54 52 48 47 41 39 39 36 35 33 30
124 119 120 114 107 102 94 86 83 82 79 79 82 71 72 66 65 65 61 60 58 61 62 60 65 69 66 68 67 61 64 63 59 56 52 50 47 45 41 40 39 38 35
120 120 123 120 112 105 100 94 87 80 79 81 81 76 73 69 69 66 60 60 60 62 63 62 66 69 70 70 71 65 63 65 63 59 57 54 52 49 46 43 41 38 37
114 119 123 122 118 111 106 100 92 86 88 92 84 77 69 69 68 68 66 64 64 63 63 62 64 76 72 73 71 68 63 66 65 63 60 56 55 51 50 47 44 42 41
107 117 122 122 122 118 110 105 97 93 92 92 89 80 75 73 72 70 68 67 66 67 65 68 69 76 76 72 71 71 67 65 67 65 63 60 57 55 52 50 49 47 44
101 112 118 121 124 123 117 111 105 101 99 92 87 88 84 82 77 80 73 70 67 68 63 65 68 73 75 72 69 73 66 66 64 64 65 64 60 58 56 56 53 50 42
95 107 114 119 123 124 122 117 111 108 105 94 81 83 89 83 79 76 74 73 72 68 65 67 66 65 68 68 69 70 71 68 65 65 68 68 68 65 63 59 56 49 47
93 105 111 119 123 127 125 121 117 108 102 100 86 86 84 85 84 78 74 74 75 71 69 72 74 69 69 65 65 66 68 72 74 68 61 66 66 66 62 59 55 53 49
93 106 112 114 121 126 126 122 117 115 113 111 101 83 78 89 90 79 81 77 74 74 73 72 80 78 73 69 66 62 61 63 65 65 64 62 60 61 57 55 54 54 52
91 105 110 114 119 123 126 124 123 120 116 117 111 101 94 93 89 85 85 85 80 77 76 74 78 85 81 72 69 67 64 63 60 63 60 60 57 55 56 57 56 56 54
88 101 107 112 116 124 128 127 123 124 122 122 114 110 99 98 91 91 85 84 83 81 81 79 77 86 90 82 77 69 68 69 67 64 60 60 57 58 61 60 59 60 61
82 97 105 110 116 121 127 127 128 125 127 124 120 116 103 102 96 91 94 87 87 88 83 83 82 81 91 93 85 81 77 73 72 74 69 68 66 65 66 66 65 66 65
78 93 104 111 117 123 126 129 131 134 131 134 129 119 119 113 106 100 98 94 95 93 86 86 85 85 86 94 94 88 84 81 81 79 75 71 70 68 67 67 67 65 63
73 87 103 111 116 123 128 131 134 136 137 131 129 120 119 118 115 116 107 100 98 99 92 89 89 85 88 87 90 90 86 84 84 81 77 77 73 72 69 69 68 69 70
64 81 99 108 113 121 128 132 135 139 139 133 135 129 121 118 119 116 110 107 103 105 96 91 88 83 75 81 91 92 90 88 86 84 83 80 77 76 73 76 75 75 73
57 73 90 104 112 120 127 134 137 140 139 137 138 138 133 124 123 120 119 119 115 107 101 99 92 88 83 80 80 86 91 91 88 86 84 82 80 79 81 76 72 69 67
54 64 82 98 109 117 127 134 139 142 140 139 139 139 135 131 127 125 123 121 115 108 107 106 103 92 84 83 82 80 84 87 84 82 79 76 74 71 70 68 68 67 67
51 60 72 91 105 116 125 133 139 143 144 140 141 140 138 136 138 129 127 121 118 116 113 111 106 99 89 87 86 83 81 83 87 81 77 71 70 70 73 72 70 71 74
46 57 67 81 97 112 121 130 138 145 145 142 143 145 142 139 137 135 131 123 123 119 117 116 111 107 102 96 91 87 84 86 84 86 82 79 78 81 78 76 77 75 76
38 52 64 73 91 105 119 128 135 144 147 146 148 147 144 143 142 137 135 135 134 127 123 117 111 110 106 102 99 94 92 90 89 88 87 85 83 85 85 83 80 79 77
32 44 57 70 80 97 110 124 132 140 147 147 150 152 148 146 146 143 139 134 129 132 130 121 118 115 111 110 107 103 99 99 97 95 90 87 87 87 88 88 86 88 83
29 37 49 62 75 85 100 111 125 135 142 147 151 156 154 152 152 147 144 140 127 125 133 129 124 119 115 114 116 112 107 106 103 100 99 96 96 93 93 92 91 93 92
29 33 41 53 66 79 88 102 114 128 137 142 147 154 156 156 154 154 149 145 141 134 130 128 128 126 122 119 117 117 118 115 110 110 108 103 101 98 97 96 96 95 93
Wind_Direction
223 222 220 217 215 213 207 200 201 219 227 224 228 229 230 230 227 224 224 226 224 222 221 216 218 218 214 218 221 219 223 227 228 226 225 228 230 230 235 238 241 250 253
223 220 218 216 213 212 206 199 198 199 216 215 221 222 227 232 227 225 227 226 225 223 222 219 217 219 216 215 222 221 223 224 227 229 226 226 230 230 235 237 242 246 252
222 220 217 214 212 211 206 198 192 202 206 219 219 221 225 228 230 228 231 225 226 225 225 219 220 221 218 217 220 225 223 225 226 230 228 228 228 229 232 235 242 248 250
219 218 217 213 210 210 207 197 194 194 200 206 215 220 227 227 230 226 228 223 225 224 226 221 218 220 221 218 218 226 226 225 226 228 230 230 230 232 234 237 242 248 255
214 216 216 213 209 209 207 200 195 195 199 204 220 219 224 222 225 225 233 226 227 224 225 225 217 220 223 222 219 222 228 225 226 228 230 233 232 233 236 239 244 249 255
210 212 215 213 209 208 207 203 197 197 196 199 220 219 221 225 228 230 229 227 226 225 227 224 221 218 224 224 223 223 229 229 228 229 231 232 235 236 239 241 245 249 253
206 208 212 213 210 207 206 204 200 199 202 202 211 214 220 217 222 227 227 224 225 225 227 228 226 218 220 224 226 223 228 233 230 232 234 234 236 239 242 244 246 250 252
202 205 208 210 209 207 206 203 202 200 203 208 210 214 210 217 221 224 225 223 224 223 226 228 226 221 222 224 225 225 229 231 236 235 236 236 236 240 243 245 248 251 252
200 202 206 207 207 205 204 204 201 201 202 200 200 209 214 220 220 224 225 222 223 224 224 226 225 224 223 224 228 228 228 232 235 239 237 239 239 240 243 245 249 251 259
198 198 202 205 205 204 204 204 200 202 204 202 202 209 214 215 222 222 223 226 224 223 223 221 222 226 225 226 228 229 231 232 235 237 239 239 238 239 242 246 251 255 254
196 196 198 203 203 203 202 202 203 203 204 199 196 201 210 209 213 219 222 225 224 223 221 220 219 222 224 223 223 229 229 232 234 234 236 240 242 243 248 250 251 251 252
196 195 197 201 202 202 202 202 201 202 203 197 198 201 203 207 213 218 222 221 225 226 225 222 221 220 224 226 226 226 228 231 232 234 237 239 242 241 243 244 245 246 247
197 195 196 199 201 201 200 200 199 202 202 204 205 204 205 210 214 217 222 223 223 227 227 225 223 222 224 225 226 227 226 228 228 229 231 234 235 238 239 240 242 245 249
201 197 196 199 199 200 200 200 199 200 202 205 203 207 209 211 211 212 215 220 224 226 229 228 227 224 223 225 226 226 226 226 228 225 226 230 232 235 237 240 245 250 254
203 199 197 199 198 200 200 199 199 199 202 204 203 201 203 208 209 215 216 218 220 224 227 229 229 227 226 225 226 228 228 230 232 231 231 231 234 238 240 244 251 254 258
205 202 199 200 198 199 200 199 198 201 202 205 206 205 204 210 210 211 214 218 222 223 224 227 229 228 226 227 227 229 232 233 234 234 235 235 239 243 245 249 251 254 257
208 206 201 202 199 199 200 200 200 201 203 205 206 206 206 210 210 211 213 214 220 221 223 226 229 230 229 226 227 229 231 235 237 238 241 244 245 246 247 249 251 254 257
209 208 205 205 203 200 201 201 201 203 204 205 206 206 207 209 209 209 211 215 217 220 221 223 225 227 226 228 230 231 232 233 235 238 241 243 244 246 247 249 251 252 254
212 209 207 206 206 203 202 202 203 205 207 205 207 207 208 207 209 210 212 215 218 218 217 221 220 222 225 224 227 231 234 234 236 237 239 240 242 245 246 250 250 247 244
214 211 209 208 209 207 204 204 204 207 209 207 209 210 210 211 212 211 215 218 219 220 220 222 221 220 223 226 229 228 229 231 234 235 237 238 241 242 242 240 241 242 243
219 215 211 210 209 209 208 206 207 207 210 208 210 211 213 214 215 216 218 218 219 220 221 224 224 222 221 224 227 226 227 226 229 229 230 230 232 234 237 240 241 244 246
225 219 216 212 211 211 211 210 208 209 211 209 211 214 213 214 216 215 219 218 221 221 222 225 224 223 223 223 225 227 227 226 227 227 226 228 230 234 236 240 242 242 246
230 223 219 216 212 212 212 213 211 211 213 210 212 215 215 216 217 218 218 221 225 223 223 224 224 224 224 225 226 226 226 227 227 227 226 228 230 236 236 238 241 242 246
239 229 222 220 217 215 215 215 214 213 214 213 212 216 216 218 219 219 219 220 223 225 228 227 226 226 226 227 227 228 228 226 227 228 226 229 230 234 239 240 243 246 247
252 237 229 222 220 219 217 217 217 216 217 216 214 215 217 217 220 220 221 223 222 226 226 227 228 228 229 230 230 230 230 229 229 230 229 231 234 235 237 241 244 248 251
260 248 236 229 224 221 220 218 218 219 219 220 218 217 218 218 220 222 222 222 221 221 223 226 228 230 230 230 231 232 232 231 231 233 232 233 237 238 239 242 245 246 250